{"data":{"norad_id":62196,"intl_designator":"2024-229E","name":"STARLINK-32682","alt_names":[],"object_type":"PAYLOAD","status":"ACTIVE","operator":null,"country":"US","launch_date":"2024-12-04","launch_site_code":"AFETR","launch_vehicle":null,"mission":null,"orbit_class":"UNKNOWN","rcs_meters":null,"size_class":null,"mass_kg":null,"dimensions":null,"purposes":["comms"],"wikipedia_slug":null,"has_3d_model":false,"image_url":null,"decayed_at":null,"tle_current":{"epoch":"2026-09-21T13:59:17.110752Z","epoch_age_seconds":84078,"freshness":"FRESH","line1":"1 62196U 24229E   26264.58283693  .00016358  00000+0  60215-3 0  9996","line2":"2 62196  43.0036 211.7419 0001412 257.5653 102.5040 15.27606772100891","mean_motion":15.27606772,"eccentricity":0.0001412,"inclination_deg":43.0036,"raan_deg":211.7419,"arg_perigee_deg":257.5653,"mean_anomaly_deg":102.504,"bstar":0.00060215,"rev_number":10089,"period_min":94.26509664622,"perigee_km":482.00014405362,"apogee_km":483.93772036888,"semimajor_km":6861.1059322113,"source":"CELESTRAK","updated_at":"2026-09-22T09:00:49.539678Z"}}}